Location: El Bakhil
(32.7726°N, 5.5387°W)
Time: 11:46:05
(UTC+00:00)

CENTAUR R/B - Pass Details

Date: 03 March 2021
Orbit: 742 x 1446 km, 63.4° (Epoch: 31 March)

Event Time Altitude Azimuth Distance (km) Brightness Sun altitude
Rises 20:31:35 0° 195° (SSW) 3,242 5.3 -28.1°
Reaches altitude 10° 20:33:53 10° 191° (S) 2,370 4.5 -28.6°
Enters shadow 20:34:01 11° 190° (S) 2,324 4.5 -28.6°
